Location: Newark
(36.0797°N, 3.9744°E)
Time: 15:41:08
(UTC+00:00)

Vanguard 2 Rocket - Pass Details

Date: 13 December 2019
Orbit: 554 x 3326 km, 32.9° (Epoch: 26 January)

Event Time Altitude Azimuth Distance (km) Brightness Sun altitude
Rises 14:50:35 0° 222° (SW) 7,305 13.4 15.4°
Reaches altitude 10° 14:56:02 10° 216° (SW) 6,236 13.5 14.6°
Maximum altitude 15:13:28 43° 153° (SSE) 3,433 10.1 12.0°
Drops below altitude 10° 15:25:25 10° 88° (E) 4,382 9.9 10.1°
Sets 15:28:27 0° 81° (E) 5,048 10.2 9.6°
